Location: Newark
(34.6000°S, 58.3833°W)
Time: 12:16:22
(UTC+00:00)

ISS - Pass Details

Date: 21 October 2019
Orbit: 412 x 421 km, 51.6° (Epoch: 19 November)

Event Time Altitude Azimuth Distance (km) Brightness Sun altitude
Rises 23:15:50 0° 281° (W) 2,352 1.0 -13.1°
Reaches altitude 10° 23:18:16 10° 264° (W) 1,497 0.3 -13.6°
Maximum altitude 23:20:53 21° 212° (SSW) 1,014 -1.1 -14.1°
Drops below altitude 10° 23:23:32 10° 161° (SSE) 1,511 -0.9 -14.6°
Enters shadow 23:27:10 -4° 140° (SE) 2,827 0.3 -15.3°
